Tracking 20083 objects as of 12-Dec-2019
HD Live streaming from Space Station
objects crossing your sky now

DELTA 4 R/B

Track DELTA 4 R/B now!


NORAD ID: 37233
Int'l Code: 2010-063B
Perigee: 33,804.9 km
Apogee: 35,734.2 km
Inclination: 4.0 °
Period: 1,384.1 minutes
Semi major axis: 41140 km
RCS: Unknown
Launch date: November 21, 2010
Source: United States (US)
Launch site: AIR FORCE EASTERN TEST RANGE (AFETR)

Note: This is a ROCKET BODY
aabbcc
Your satellite tracking list
Your tracking list is empty




NASA's NSSDC Master Catalog

Two Line Element Set (TLE):
1 37233U 10063B   19345.34423018 -.00000100 +00000-0 +00000-0 0  9997
2 37233 003.9959 141.9029 0234479 322.5141 035.7693 01.04039479001548
Source of the keplerian elements: McCants